Regional Weather Roundup
Issued by NWS

Home | Current Version | Previous Version | Graphics & Text | Print | Product List | Glossary On
Versions: 1 2 3 4 5 6 7 8 9 10 11 12 13 14 15 16 17 18 19 20 21 22 23 24 25 26 27 28 29 30 31 32 33 34 35 36 37 38 39 40 41 42 43 44 45 46 47 48 49 50
000
ASUS45 KPSR 261400
RWRAZ

PRELIMINARY ARIZONA REGIONAL HOURLY WEATHER ROUNDUP
NATIONAL WEATHER SERVICE PHOENIX AZ
700 AM MST SAT JUL 26 2014

NOTE: FAIR INDICATES FEW OR NO CLOUDS BELOW 12,000 FEET WITH NO
SIGNIFICANT WEATHER AND/OR OBSTRUCTIONS TO VISIBILITY.

AZZ001>003-036-261500-
NORTHWEST ARIZONA

CITY           SKY/WX    TMP DP  RH WIND       PRES   REMARKS
KINGMAN        MOSUNNY   74  61  63 SE13      30.11R
$$

AZZ004>008-015-016-018-261500-
NORTH CENTRAL ARIZONA

CITY           SKY/WX    TMP DP  RH WIND       PRES   REMARKS
GRAND CANYON   CLOUDY    64  50  60 CALM      30.35R
WILLIAMS       PTSUNNY   61  54  77 CALM      30.41R
PRESCOTT       PTSUNNY   68  57  68 CALM      30.24R
FLAGSTAFF      PTSUNNY   62  48  60 CALM      30.37R
PAYSON         SUNNY     70  57  64 CALM      30.24R
PAGE           PTSUNNY   82  50  32 SE8       30.13R
$$

AZZ009>014-017-261500-
NORTHEAST ARIZONA

CITY           SKY/WX    TMP DP  RH WIND       PRES   REMARKS
WINSLOW        NOT AVBL
SAINT JOHNS    SUNNY     72  54  53 S6        30.27R
WINDOW ROCK    SUNNY     67  44  43 CALM      30.35R
$$

AZZ023-261500-
GREATER PHOENIX AREA

CITY           SKY/WX    TMP DP  RH WIND       PRES   REMARKS
PHOENIX        MOSUNNY   85  65  51 E9        29.94R
BUCKEYE          N/A     86  63  45 NE5       29.95R
GLENDALE       MOSUNNY   86  63  45 CALM      29.96
LUKE AFB       NOT AVBL
DEER VALLEY    MOSUNNY   84  62  47 E7        29.96R
SCOTTSDALE     SUNNY     83  64  52 E3        29.98S
MESA-GATEWAY   SUNNY     82  64  54 SE12      29.99R
CHANDLER       SUNNY     82  66  57 NE8       29.96R
$$

AZZ027-028-261500-
SOUTHWEST MARICOPA COUNTY AND PINAL COUNTY

CITY           SKY/WX    TMP DP  RH WIND       PRES   REMARKS
CASA GRANDE    SUNNY     79  64  61 CALM      29.99R
$$

AZZ503-504-507>509-261500-
SOUTHEAST ARIZONA

CITY           SKY/WX    TMP DP  RH WIND       PRES   REMARKS
TUCSON         SUNNY     76  64  66 SE6       30.08R
DAVIS-MONTHAN  SUNNY     76  63  64 SE5       30.07R
RYAN FIELD       N/A     75  64  69 SE5       30.07R
NOGALES        SUNNY     72  62  71 CALM      30.15R
SIERRA VISTA   SUNNY     77  54  44 W14       30.18S
SAFFORD        SUNNY     79  59  50 W6        30.04R
$$

AZZ020-021-025-026-031-261500-
SOUTHWEST ARIZONA

CITY           SKY/WX    TMP DP  RH WIND       PRES   REMARKS
YUMA           SUNNY     91  67  44 SE13      29.85R
$$

CAZ031-033-041-043-047-048-061-261500-
SOUTHERN CALIFORNIA

CITY           SKY/WX    TMP DP  RH WIND       PRES   REMARKS
DOWNTOWN L.A.  MOSUNNY   69  64  84 CALM      29.93R
L.A. AIRPORT   FOG       64  64 100 W6        29.94S VSB 1/8
SAN DIEGO      CLOUDY    69  64  84 S5        29.96R HAZE
BURBANK        MOSUNNY   72  61  68 CALM      29.94R
ONTARIO        CLOUDY    74  63  68 S3        29.94S
RIVERSIDE      MOSUNNY   72  63  73 CALM      29.95R
PALM SPRINGS   MOSUNNY   83  63  50 CALM      29.91R
EL CENTRO NAS  MOSUNNY   87  74  64 E3        29.83R
IMPERIAL       MOSUNNY   87  72  60 SE6       29.82R
BLYTHE         SUNNY     89  65  44 E3        29.87R
$$

NVZ020-UTZ003-261500-
SOUTHERN NEVADA-UTAH

CITY           SKY/WX    TMP DP  RH WIND       PRES   REMARKS
LAS VEGAS      NOT AVBL
SALT LAKE CITY MOSUNNY   72  50  45 CALM      30.11R
$$

NMZ009-TXZ055-261500-
NEW MEXICO-WEST TEXAS

CITY           SKY/WX    TMP DP  RH WIND       PRES   REMARKS
ALBUQUERQUE    MOSUNNY   77  45  32 SE6       30.20R
EL PASO        SUNNY     80  48  32 SE8       30.07R
$$


........................KEY........................
SKY/WX - SKY CONDITION/WEATHER
TMP    - TEMPERATURE IN FAHRENHEIT
DP     - DEW POINT IN FAHRENHEIT
RH     - RELATIVE HUMIDITY IN PERCENT
WIND   - DIRECTION AND SPEED IN MILES PER HOUR (MPH)
VRB    - VARIABLE WIND DIRECTION
PRES   - MEAN SEA LEVEL PRESSURE IN INCHES OF MERCURY
         F - FALLING PRESSURE   R - RISING PRESSURE
         S - STEADY PRESSURE
VSB    - VISIBILITY IN MILES
HX     - HEAT INDEX IN FAHRENHEIT
WCI    - WIND CHILL INDEX IN FAHRENHEIT
TC     - TEMPERATURE IN CELSIUS WHICH IS ALSO KNOWN AS
         TEMPERATURE IN CENTIGRADE
AFB    - AIR FORCE BASE
         LUKE AFB IS LUKE AIR FORCE BASE
         DAVIS-MONTHAN IS DAVIS-MONTHAN AIR FORCE BASE
NAS    - NAVAL AIR STATION
         EL CENTRO NAS IS EL CENTRO NAVAL AIR STATION
N/A    - NOT AVAILABLE



USA.gov is the U.S. government's official web portal to all federal, state and local government web resources and services.